Location: Bratislava
(48.1500°N, 17.1170°E)
Time: 01:55:29
(UTC+02:00)

ISS - Pass Details

Date: 01 April 2019
Orbit: 408 x 410 km, 51.6° (Epoch: 23 April)

Event Time Altitude Azimuth Distance (km) Brightness Sun altitude
Rises 20:09:59 0° 286° (WNW) 2,339 2.6 -8.8°
Reaches altitude 10° 20:12:07 10° 292° (WNW) 1,476 0.7 -9.1°
Maximum altitude 20:15:20 47° 8° (N) 556 -3.1 -9.6°
Enters shadow 20:18:09 13° 82° (E) 1,323 -1.8 -10.1°
